Time,TemperatureF,DewpointF,PressureIn,WindDirection,WindDirectionDegrees,WindSpeedMPH,WindSpeedGustMPH,Humidity,HourlyPrecipIn,Conditions,Clouds,dailyrainin,SoftwareType,DateUTC
2013-02-27 00:00:00,44.8,37.7,30.21,SSE,158,3.6,4.0,76,0.02,,,0.01,WUHU216HW,2013-02-27 08:00:00,
2013-02-27 00:05:00,44.6,37.9,30.21,South,180,2.5,4.0,77,0.02,,,0.01,WUHU216HW,2013-02-27 08:05:00,
2013-02-27 00:10:00,44.5,38.3,30.21,South,180,3.6,4.7,79,0.03,,,0.02,WUHU216HW,2013-02-27 08:10:00,
2013-02-27 00:15:00,44.3,38.2,30.21,South,180,4.0,5.4,79,0.02,,,0.02,WUHU216HW,2013-02-27 08:15:00,
2013-02-27 00:20:00,44.1,38.0,30.21,South,180,1.3,5.4,79,0.02,,,0.02,WUHU216HW,2013-02-27 08:20:00,
2013-02-27 00:25:00,43.9,37.8,30.21,SSW,203,0.4,4.0,79,0.02,,,0.02,WUHU216HW,2013-02-27 08:25:00,
2013-02-27 00:30:00,43.9,37.8,30.21,SSW,203,0.0,1.3,79,0.02,,,0.02,WUHU216HW,2013-02-27 08:30:00,
2013-02-27 00:35:00,43.9,37.8,30.21,ENE,68,0.0,0.7,79,0.02,,,0.02,WUHU216HW,2013-02-27 08:35:00,
2013-02-27 00:40:00,43.7,37.6,30.21,ENE,68,0.0,0.7,79,0.02,,,0.02,WUHU216HW,2013-02-27 08:40:00,
2013-02-27 00:45:00,43.7,38.0,30.21,North,0,0.2,0.7,80,0.02,,,0.02,WUHU216HW,2013-02-27 08:45:00,
2013-02-27 00:50:00,43.7,38.0,30.21,North,0,0.2,0.7,80,0.02,,,0.02,WUHU216HW,2013-02-27 08:50:00,
2013-02-27 00:55:00,43.7,38.3,30.21,North,0,0.0,0.4,81,0.02,,,0.02,WUHU216HW,2013-02-27 08:55:00,
2013-02-27 01:00:00,43.7,38.3,30.22,NNW,338,0.0,0.7,81,0.01,,,0.02,WUHU216HW,2013-02-27 09:00:00,
2013-02-27 01:05:00,43.7,38.3,30.21,NNW,338,0.2,0.7,81,0.01,,,0.02,WUHU216HW,2013-02-27 09:05:00,
2013-02-27 01:10:00,43.6,38.4,30.22,SSE,158,0.7,2.2,82,0.00,,,0.02,WUHU216HW,2013-02-27 09:10:00,
2013-02-27 01:15:00,43.6,39.1,30.22,South,180,1.8,5.1,84,0.00,,,0.02,WUHU216HW,2013-02-27 09:15:00,
2013-02-27 01:20:00,43.6,38.7,30.21,SSW,203,2.5,5.1,83,0.01,,,0.03,WUHU216HW,2013-02-27 09:20:00,
2013-02-27 01:25:00,43.6,38.7,30.21,SSW,203,2.5,4.7,83,0.01,,,0.03,WUHU216HW,2013-02-27 09:25:00,
2013-02-27 01:30:00,43.6,39.1,30.22,SSE,158,4.7,5.8,84,0.01,,,0.03,WUHU216HW,2013-02-27 09:30:00,
2013-02-27 01:35:00,43.6,39.3,30.22,SSW,203,2.5,7.8,85,0.01,,,0.03,WUHU216HW,2013-02-27 09:35:00,
2013-02-27 01:40:00,43.4,38.9,30.21,South,180,5.1,10.1,84,0.01,,,0.03,WUHU216HW,2013-02-27 09:40:00,
2013-02-27 01:45:00,43.2,38.7,30.21,SSW,203,6.0,10.1,84,0.01,,,0.03,WUHU216HW,2013-02-27 09:45:00,
2013-02-27 01:50:00,43.0,38.8,30.21,SSW,203,2.7,6.0,85,0.01,,,0.03,WUHU216HW,2013-02-27 09:50:00,
2013-02-27 01:55:00,43.0,38.8,30.21,South,180,3.8,6.0,85,0.01,,,0.03,WUHU216HW,2013-02-27 09:55:00,
2013-02-27 02:00:00,42.8,38.6,30.22,WSW,248,3.1,7.6,85,0.01,,,0.03,WUHU216HW,2013-02-27 10:00:00,
2013-02-27 02:05:00,42.8,38.6,30.22,South,180,5.8,7.6,85,0.01,,,0.03,WUHU216HW,2013-02-27 10:05:00,
2013-02-27 02:10:00,42.8,38.6,30.22,ESE,113,4.9,6.3,85,0.01,,,0.03,WUHU216HW,2013-02-27 10:10:00,
2013-02-27 02:15:00,42.8,38.6,30.22,South,180,3.4,5.1,85,0.01,,,0.03,WUHU216HW,2013-02-27 10:15:00,
2013-02-27 02:20:00,42.8,38.9,30.22,SSE,158,1.1,6.5,86,0.00,,,0.03,WUHU216HW,2013-02-27 10:20:00,
2013-02-27 02:25:00,42.7,38.7,30.22,SSW,203,1.8,6.5,86,0.00,,,0.03,WUHU216HW,2013-02-27 10:25:00,
2013-02-27 02:30:00,42.7,38.7,30.22,SSW,203,4.3,5.6,86,0.00,,,0.03,WUHU216HW,2013-02-27 10:30:00,
2013-02-27 02:35:00,42.7,38.4,30.23,SW,225,2.7,4.7,85,0.00,,,0.03,WUHU216HW,2013-02-27 10:35:00,
2013-02-27 02:40:00,42.7,38.7,30.23,SSW,203,2.7,5.4,86,0.00,,,0.03,WUHU216HW,2013-02-27 10:40:00,
2013-02-27 02:45:00,42.5,38.5,30.23,South,180,2.5,5.4,86,0.00,,,0.03,WUHU216HW,2013-02-27 10:45:00,
2013-02-27 02:50:00,42.5,38.3,30.23,SW,225,0.4,4.3,85,0.00,,,0.03,WUHU216HW,2013-02-27 10:50:00,
2013-02-27 02:55:00,42.5,38.3,30.23,WSW,248,1.1,4.3,85,0.00,,,0.03,WUHU216HW,2013-02-27 10:55:00,
2013-02-27 03:00:00,42.3,38.1,30.23,SSE,158,0.4,4.3,85,0.00,,,0.03,WUHU216HW,2013-02-27 11:00:00,
2013-02-27 03:05:00,42.3,38.3,30.23,SSW,203,1.1,4.7,86,0.00,,,0.03,WUHU216HW,2013-02-27 11:05:00,
2013-02-27 03:10:00,42.3,38.1,30.23,SSE,158,2.7,4.7,85,0.00,,,0.03,WUHU216HW,2013-02-27 11:10:00,
2013-02-27 03:15:00,42.3,38.1,30.23,South,180,3.4,3.4,85,0.00,,,0.03,WUHU216HW,2013-02-27 11:15:00,
2013-02-27 03:20:00,42.1,38.2,30.23,South,180,1.8,4.7,86,0.00,,,0.03,WUHU216HW,2013-02-27 11:20:00,
2013-02-27 03:25:00,42.1,37.9,30.23,SW,225,1.3,4.7,85,0.00,,,0.03,WUHU216HW,2013-02-27 11:25:00,
2013-02-27 03:30:00,42.1,37.9,30.23,SW,225,2.2,2.2,85,0.00,,,0.03,WUHU216HW,2013-02-27 11:30:00,
2013-02-27 03:35:00,42.1,38.2,30.23,SW,225,2.9,4.0,86,0.00,,,0.03,WUHU216HW,2013-02-27 11:35:00,
2013-02-27 03:40:00,42.1,37.9,30.23,South,180,0.0,4.0,85,0.00,,,0.03,WUHU216HW,2013-02-27 11:40:00,
2013-02-27 03:45:00,42.1,38.2,30.24,SE,135,0.4,1.8,86,0.00,,,0.03,WUHU216HW,2013-02-27 11:45:00,
2013-02-27 03:50:00,42.3,38.1,30.24,SW,225,0.2,1.8,85,0.00,,,0.03,WUHU216HW,2013-02-27 11:50:00,
2013-02-27 03:55:00,42.5,38.5,30.24,WNW,293,0.0,1.8,86,0.00,,,0.03,WUHU216HW,2013-02-27 11:55:00,
2013-02-27 04:00:00,42.5,38.3,30.24,WNW,293,0.4,0.4,85,0.00,,,0.03,WUHU216HW,2013-02-27 12:00:00,
2013-02-27 04:05:00,42.5,38.3,30.24,WNW,293,0.0,0.4,85,0.00,,,0.03,WUHU216HW,2013-02-27 12:05:00,
2013-02-27 04:10:00,42.5,38.3,30.24,WNW,293,0.0,0.4,85,0.00,,,0.03,WUHU216HW,2013-02-27 12:10:00,
2013-02-27 04:15:00,42.5,38.3,30.24,WNW,293,0.0,0.4,85,0.00,,,0.03,WUHU216HW,2013-02-27 12:15:00,
2013-02-27 04:20:00,42.7,38.4,30.25,WNW,293,0.0,0.2,85,0.00,,,0.03,WUHU216HW,2013-02-27 12:20:00,
2013-02-27 04:25:00,42.7,38.4,30.25,WNW,293,0.7,0.9,85,0.00,,,0.03,WUHU216HW,2013-02-27 12:25:00,
2013-02-27 04:30:00,42.8,38.6,30.25,WNW,293,0.4,0.9,85,0.00,,,0.03,WUHU216HW,2013-02-27 12:30:00,
2013-02-27 04:35:00,42.8,38.6,30.25,WNW,293,0.0,0.7,85,0.00,,,0.03,WUHU216HW,2013-02-27 12:35:00,
2013-02-27 04:40:00,42.8,38.6,30.26,WNW,293,0.0,0.4,85,0.00,,,0.03,WUHU216HW,2013-02-27 12:40:00,
2013-02-27 04:45:00,42.8,38.6,30.26,WNW,293,0.0,0.4,85,0.00,,,0.03,WUHU216HW,2013-02-27 12:45:00,
2013-02-27 04:50:00,42.8,38.6,30.26,WNW,293,0.0,0.0,85,0.00,,,0.03,WUHU216HW,2013-02-27 12:50:00,
2013-02-27 04:55:00,42.7,38.4,30.26,WNW,293,0.0,0.2,85,0.00,,,0.03,WUHU216HW,2013-02-27 12:55:00,
2013-02-27 05:00:00,42.8,38.6,30.26,WNW,293,0.0,0.2,85,0.00,,,0.03,WUHU216HW,2013-02-27 13:00:00,
2013-02-27 05:05:00,42.7,38.4,30.27,WNW,293,0.0,0.2,85,0.00,,,0.03,WUHU216HW,2013-02-27 13:05:00,
2013-02-27 05:10:00,42.8,38.9,30.27,WNW,293,0.0,0.0,86,0.00,,,0.03,WUHU216HW,2013-02-27 13:10:00,
2013-02-27 05:15:00,42.7,38.4,30.27,WNW,293,0.0,0.0,85,0.00,,,0.03,WUHU216HW,2013-02-27 13:15:00,
2013-02-27 05:20:00,42.5,38.3,30.27,WNW,293,0.0,0.0,85,0.00,,,0.03,WUHU216HW,2013-02-27 13:20:00,
2013-02-27 05:25:00,42.5,38.5,30.27,WNW,293,0.0,0.0,86,0.00,,,0.03,WUHU216HW,2013-02-27 13:25:00,
2013-02-27 05:30:00,42.5,38.5,30.27,WNW,293,0.0,0.0,86,0.00,,,0.03,WUHU216HW,2013-02-27 13:30:00,
2013-02-27 05:35:00,42.3,38.3,30.28,WNW,293,0.0,0.0,86,0.00,,,0.03,WUHU216HW,2013-02-27 13:35:00,
2013-02-27 05:40:00,42.3,38.3,30.28,WNW,293,0.0,0.0,86,0.00,,,0.03,WUHU216HW,2013-02-27 13:40:00,
2013-02-27 05:45:00,42.3,38.3,30.28,WNW,293,0.0,0.0,86,0.00,,,0.03,WUHU216HW,2013-02-27 13:45:00,
2013-02-27 05:50:00,42.3,38.3,30.28,WNW,293,0.0,0.4,86,0.00,,,0.03,WUHU216HW,2013-02-27 13:50:00,
2013-02-27 05:55:00,42.3,38.3,30.29,WNW,293,0.0,0.9,86,0.00,,,0.03,WUHU216HW,2013-02-27 13:55:00,
2013-02-27 06:00:00,42.5,38.5,30.29,WNW,293,0.0,0.9,86,0.00,,,0.03,WUHU216HW,2013-02-27 14:00:00,
2013-02-27 06:05:00,42.5,38.9,30.29,WNW,293,0.0,0.0,87,0.00,,,0.03,WUHU216HW,2013-02-27 14:05:00,
2013-02-27 06:10:00,42.5,38.9,30.29,WNW,293,0.0,0.0,87,0.00,,,0.03,WUHU216HW,2013-02-27 14:10:00,
2013-02-27 06:15:00,42.5,38.9,30.29,WNW,293,0.0,0.0,87,0.00,,,0.03,WUHU216HW,2013-02-27 14:15:00,
2013-02-27 06:20:00,42.5,38.9,30.29,WNW,293,0.0,0.0,87,0.00,,,0.03,WUHU216HW,2013-02-27 14:20:00,
2013-02-27 06:25:00,42.7,38.7,30.29,WNW,293,0.0,0.0,86,0.00,,,0.03,WUHU216HW,2013-02-27 14:25:00,
2013-02-27 06:30:00,42.7,38.7,30.29,WNW,293,0.0,0.0,86,0.00,,,0.03,WUHU216HW,2013-02-27 14:30:00,
2013-02-27 06:35:00,42.8,38.9,30.29,WNW,293,0.0,0.0,86,0.00,,,0.03,WUHU216HW,2013-02-27 14:35:00,
2013-02-27 06:40:00,42.8,39.3,30.29,WNW,293,0.0,0.0,87,0.00,,,0.03,WUHU216HW,2013-02-27 14:40:00,
2013-02-27 06:45:00,42.8,38.9,30.30,WNW,293,0.0,0.0,86,0.00,,,0.03,WUHU216HW,2013-02-27 14:45:00,
2013-02-27 06:50:00,42.8,39.3,30.30,WNW,293,0.0,0.2,87,0.00,,,0.03,WUHU216HW,2013-02-27 14:50:00,
2013-02-27 06:55:00,42.8,38.9,30.30,WNW,293,0.0,0.2,86,0.00,,,0.03,WUHU216HW,2013-02-27 14:55:00,
2013-02-27 07:00:00,42.8,38.9,30.30,WNW,293,0.0,0.0,86,0.00,,,0.03,WUHU216HW,2013-02-27 15:00:00,
2013-02-27 07:05:00,42.8,38.9,30.30,WNW,293,0.0,0.0,86,0.00,,,0.03,WUHU216HW,2013-02-27 15:05:00,
2013-02-27 07:10:00,42.8,38.9,30.30,WNW,293,0.0,0.0,86,0.00,,,0.03,WUHU216HW,2013-02-27 15:10:00,
2013-02-27 07:15:00,42.8,38.9,30.29,WNW,293,0.0,0.0,86,0.00,,,0.03,WUHU216HW,2013-02-27 15:15:00,
2013-02-27 07:20:00,42.8,38.9,30.29,WNW,293,0.0,0.0,86,0.00,,,0.03,WUHU216HW,2013-02-27 15:20:00,
2013-02-27 07:25:00,42.8,38.9,30.29,WNW,293,0.0,0.0,86,0.00,,,0.03,WUHU216HW,2013-02-27 15:25:00,
2013-02-27 07:30:00,42.8,38.9,30.30,WNW,293,0.0,0.2,86,0.00,,,0.03,WUHU216HW,2013-02-27 15:30:00,
2013-02-27 07:35:00,42.8,38.9,30.30,WNW,293,0.0,0.2,86,0.00,,,0.03,WUHU216HW,2013-02-27 15:35:00,
2013-02-27 07:40:00,42.8,38.9,30.30,WNW,293,0.0,0.0,86,0.00,,,0.03,WUHU216HW,2013-02-27 15:40:00,
2013-02-27 07:45:00,42.8,38.9,30.30,WNW,293,0.0,0.0,86,0.00,,,0.03,WUHU216HW,2013-02-27 15:45:00,
2013-02-27 07:50:00,43.0,39.1,30.30,WNW,293,0.4,0.4,86,0.00,,,0.03,WUHU216HW,2013-02-27 15:50:00,
2013-02-27 07:55:00,43.2,39.2,30.30,WNW,293,0.0,0.4,86,0.00,,,0.03,WUHU216HW,2013-02-27 15:55:00,
2013-02-27 08:00:00,43.2,39.2,30.29,WNW,293,0.0,0.4,86,0.00,,,0.03,WUHU216HW,2013-02-27 16:00:00,
2013-02-27 08:05:00,43.2,39.2,30.30,SW,225,0.0,0.0,86,0.00,,,0.03,WUHU216HW,2013-02-27 16:05:00,
2013-02-27 08:10:00,43.4,39.8,30.30,SSW,203,0.0,0.4,87,0.00,,,0.03,WUHU216HW,2013-02-27 16:10:00,
2013-02-27 08:15:00,43.6,40.0,30.30,SSE,158,0.0,0.4,87,0.00,,,0.03,WUHU216HW,2013-02-27 16:15:00,
2013-02-27 08:20:00,43.9,40.6,30.30,WNW,293,0.4,1.1,88,0.00,,,0.03,WUHU216HW,2013-02-27 16:20:00,
2013-02-27 08:25:00,44.3,40.7,30.30,NE,45,0.9,1.1,87,0.00,,,0.03,WUHU216HW,2013-02-27 16:25:00,
2013-02-27 08:30:00,44.6,40.7,30.30,ENE,68,0.7,1.1,86,0.00,,,0.03,WUHU216HW,2013-02-27 16:30:00,
2013-02-27 08:35:00,44.8,40.6,30.30,SSE,158,1.3,1.8,85,0.00,,,0.03,WUHU216HW,2013-02-27 16:35:00,
2013-02-27 08:40:00,45.4,41.1,30.29,SSE,158,1.1,2.2,85,0.00,,,0.03,WUHU216HW,2013-02-27 16:40:00,
2013-02-27 08:45:00,46.1,41.6,30.29,SSE,158,1.8,3.1,84,0.00,,,0.03,WUHU216HW,2013-02-27 16:45:00,
2013-02-27 08:50:00,46.3,41.4,30.29,ENE,68,1.1,3.1,83,0.00,,,0.03,WUHU216HW,2013-02-27 16:50:00,
2013-02-27 08:55:00,46.1,41.2,30.29,East,90,1.8,2.7,83,0.00,,,0.03,WUHU216HW,2013-02-27 16:55:00,
2013-02-27 09:00:00,45.9,41.0,30.29,ENE,68,1.1,2.7,83,0.00,,,0.03,WUHU216HW,2013-02-27 17:00:00,
2013-02-27 09:05:00,46.1,41.6,30.29,South,180,1.8,2.7,84,0.00,,,0.03,WUHU216HW,2013-02-27 17:05:00,
2013-02-27 09:10:00,46.6,41.8,30.28,East,90,2.2,2.7,83,0.00,,,0.03,WUHU216HW,2013-02-27 17:10:00,
2013-02-27 09:15:00,47.3,41.8,30.28,SSW,203,1.3,3.8,81,0.00,,,0.03,WUHU216HW,2013-02-27 17:15:00,
2013-02-27 09:20:00,47.9,41.9,30.28,SSE,158,2.2,3.8,80,0.00,,,0.03,WUHU216HW,2013-02-27 17:20:00,
2013-02-27 09:25:00,47.9,41.9,30.28,NNW,338,1.3,4.0,80,0.00,,,0.03,WUHU216HW,2013-02-27 17:25:00,
2013-02-27 09:30:00,48.4,42.5,30.28,SSE,158,1.3,4.5,80,0.00,,,0.03,WUHU216HW,2013-02-27 17:30:00,
2013-02-27 09:35:00,49.0,42.7,30.27,SE,135,2.9,4.5,79,0.00,,,0.03,WUHU216HW,2013-02-27 17:35:00,
2013-02-27 09:40:00,49.7,42.0,30.28,SSW,203,4.0,4.0,75,0.00,,,0.03,WUHU216HW,2013-02-27 17:40:00,
2013-02-27 09:45:00,49.7,42.4,30.28,SSE,158,4.0,4.7,76,0.00,,,0.03,WUHU216HW,2013-02-27 17:45:00,
2013-02-27 09:50:00,49.7,41.3,30.28,SE,135,2.5,4.7,73,0.00,,,0.03,WUHU216HW,2013-02-27 17:50:00,
2013-02-27 09:55:00,49.9,40.5,30.28,SSE,158,2.9,4.7,70,0.00,,,0.03,WUHU216HW,2013-02-27 17:55:00,
2013-02-27 10:00:00,49.9,40.9,30.27,SSW,203,3.4,4.7,71,0.00,,,0.03,WUHU216HW,2013-02-27 18:00:00,
2013-02-27 10:05:00,49.7,40.3,30.27,SSW,203,2.5,4.7,70,0.00,,,0.03,WUHU216HW,2013-02-27 18:05:00,
2013-02-27 10:10:00,49.7,40.7,30.27,SSE,158,1.1,4.0,71,0.00,,,0.03,WUHU216HW,2013-02-27 18:10:00,
2013-02-27 10:15:00,49.9,41.2,30.27,South,180,2.9,4.0,72,0.00,,,0.03,WUHU216HW,2013-02-27 18:15:00,
2013-02-27 10:20:00,49.9,40.2,30.27,SSE,158,2.7,4.0,69,0.00,,,0.03,WUHU216HW,2013-02-27 18:20:00,
2013-02-27 10:25:00,49.7,40.3,30.27,SE,135,2.9,4.0,70,0.00,,,0.03,WUHU216HW,2013-02-27 18:25:00,
2013-02-27 10:30:00,49.9,40.5,30.27,South,180,2.9,4.0,70,0.00,,,0.03,WUHU216HW,2013-02-27 18:30:00,
2013-02-27 10:35:00,50.0,40.7,30.28,South,180,2.2,3.4,70,0.00,,,0.03,WUHU216HW,2013-02-27 18:35:00,
2013-02-27 10:40:00,49.9,40.5,30.28,South,180,2.0,4.0,70,0.00,,,0.03,WUHU216HW,2013-02-27 18:40:00,
2013-02-27 10:45:00,49.5,40.1,30.29,SE,135,1.8,4.9,70,0.00,,,0.03,WUHU216HW,2013-02-27 18:45:00,
2013-02-27 10:50:00,49.3,40.7,30.29,SW,225,1.8,4.9,72,0.00,,,0.03,WUHU216HW,2013-02-27 18:50:00,
2013-02-27 10:55:00,49.5,40.5,30.29,SSW,203,2.7,3.8,71,0.00,,,0.03,WUHU216HW,2013-02-27 18:55:00,
2013-02-27 11:00:00,49.3,40.7,30.29,SSW,203,4.0,4.0,72,0.00,,,0.03,WUHU216HW,2013-02-27 19:00:00,
2013-02-27 11:05:00,49.5,41.1,30.30,South,180,2.5,4.7,73,0.00,,,0.03,WUHU216HW,2013-02-27 19:05:00,
2013-02-27 11:10:00,50.0,41.4,30.29,SSW,203,4.0,4.7,72,0.00,,,0.03,WUHU216HW,2013-02-27 19:10:00,
2013-02-27 11:15:00,50.0,41.7,30.30,SSE,158,1.8,4.0,73,0.00,,,0.03,WUHU216HW,2013-02-27 19:15:00,
2013-02-27 11:20:00,50.0,41.1,30.30,South,180,2.7,4.7,71,0.00,,,0.03,WUHU216HW,2013-02-27 19:20:00,
2013-02-27 11:25:00,49.7,40.7,30.30,SSE,158,3.8,4.7,71,0.00,,,0.03,WUHU216HW,2013-02-27 19:25:00,
2013-02-27 11:30:00,49.5,40.9,30.30,South,180,2.2,4.0,72,0.00,,,0.03,WUHU216HW,2013-02-27 19:30:00,
2013-02-27 11:35:00,49.3,40.7,30.31,SSE,158,0.7,4.0,72,0.00,,,0.03,WUHU216HW,2013-02-27 19:35:00,
2013-02-27 11:40:00,49.3,41.0,30.30,WSW,248,1.1,4.0,73,0.00,,,0.03,WUHU216HW,2013-02-27 19:40:00,
2013-02-27 11:45:00,49.7,41.3,30.31,SSE,158,2.7,3.4,73,0.00,,,0.03,WUHU216HW,2013-02-27 19:45:00,
2013-02-27 11:50:00,49.7,41.1,30.30,South,180,3.4,4.7,72,0.00,,,0.03,WUHU216HW,2013-02-27 19:50:00,
2013-02-27 11:55:00,49.3,40.3,30.31,SSW,203,1.1,4.7,71,0.00,,,0.03,WUHU216HW,2013-02-27 19:55:00,
2013-02-27 12:00:00,49.5,40.9,30.30,South,180,3.4,4.0,72,0.00,,,0.03,WUHU216HW,2013-02-27 20:00:00,
2013-02-27 12:05:00,49.7,41.1,30.30,South,180,1.1,4.7,72,0.00,,,0.03,WUHU216HW,2013-02-27 20:05:00,
2013-02-27 12:10:00,49.7,40.7,30.30,SSE,158,3.4,4.7,71,0.00,,,0.03,WUHU216HW,2013-02-27 20:10:00,
2013-02-27 12:15:00,49.3,40.7,30.30,South,180,1.6,4.0,72,0.00,,,0.03,WUHU216HW,2013-02-27 20:15:00,
2013-02-27 12:20:00,49.0,40.3,30.30,South,180,1.8,4.0,72,0.00,,,0.03,WUHU216HW,2013-02-27 20:20:00,
2013-02-27 12:25:00,49.0,40.6,30.30,South,180,1.8,3.1,73,0.00,,,0.03,WUHU216HW,2013-02-27 20:25:00,
2013-02-27 12:30:00,49.1,40.8,30.29,SSE,158,1.1,2.5,73,0.00,,,0.03,WUHU216HW,2013-02-27 20:30:00,
2013-02-27 12:35:00,49.1,40.5,30.30,SE,135,2.9,3.4,72,0.00,,,0.03,WUHU216HW,2013-02-27 20:35:00,
2013-02-27 12:40:00,49.3,41.3,30.30,SSE,158,2.2,3.6,74,0.00,,,0.03,WUHU216HW,2013-02-27 20:40:00,
2013-02-27 12:45:00,49.0,40.6,30.30,SSE,158,1.8,3.6,73,0.00,,,0.03,WUHU216HW,2013-02-27 20:45:00,
2013-02-27 12:50:00,49.1,41.1,30.30,SSE,158,1.8,3.4,74,0.00,,,0.03,WUHU216HW,2013-02-27 20:50:00,
2013-02-27 12:55:00,49.0,40.6,30.29,SSE,158,1.8,3.4,73,0.00,,,0.03,WUHU216HW,2013-02-27 20:55:00,
2013-02-27 13:00:00,49.1,41.1,30.29,South,180,0.0,2.9,74,0.00,,,0.03,WUHU216HW,2013-02-27 21:00:00,
2013-02-27 13:05:00,49.3,41.3,30.29,SSE,158,1.8,3.4,74,0.00,,,0.03,WUHU216HW,2013-02-27 21:05:00,
2013-02-27 13:10:00,49.5,40.9,30.29,SSE,158,2.5,3.4,72,0.00,,,0.03,WUHU216HW,2013-02-27 21:10:00,
2013-02-27 13:15:00,49.5,40.9,30.28,South,180,2.0,2.9,72,0.00,,,0.03,WUHU216HW,2013-02-27 21:15:00,
2013-02-27 13:20:00,49.7,40.7,30.28,South,180,3.4,3.6,71,0.00,,,0.03,WUHU216HW,2013-02-27 21:20:00,
2013-02-27 13:25:00,49.7,41.1,30.27,SSE,158,1.8,3.6,72,0.00,,,0.03,WUHU216HW,2013-02-27 21:25:00,
2013-02-27 13:30:00,49.7,41.3,30.28,South,180,3.6,4.0,73,0.00,,,0.03,WUHU216HW,2013-02-27 21:30:00,
2013-02-27 13:35:00,49.5,41.5,30.28,South,180,1.3,4.0,74,0.00,,,0.03,WUHU216HW,2013-02-27 21:35:00,
2013-02-27 13:40:00,49.3,42.0,30.28,South,180,2.0,4.5,76,0.00,,,0.03,WUHU216HW,2013-02-27 21:40:00,
2013-02-27 13:45:00,49.1,42.2,30.28,SE,135,0.9,4.5,77,0.00,,,0.03,WUHU216HW,2013-02-27 21:45:00,
2013-02-27 13:50:00,48.6,41.3,30.28,SSW,203,1.8,2.0,76,0.01,,,0.04,WUHU216HW,2013-02-27 21:50:00,
2013-02-27 13:55:00,48.6,41.9,30.27,SSE,158,0.7,2.5,78,0.01,,,0.04,WUHU216HW,2013-02-27 21:55:00,
2013-02-27 14:00:00,48.2,41.6,30.27,SSW,203,0.4,2.5,78,0.01,,,0.04,WUHU216HW,2013-02-27 22:00:00,
2013-02-27 14:05:00,48.2,41.6,30.27,SSE,158,0.7,2.5,78,0.01,,,0.04,WUHU216HW,2013-02-27 22:05:00,
2013-02-27 14:10:00,48.2,41.6,30.27,SE,135,1.1,2.2,78,0.01,,,0.04,WUHU216HW,2013-02-27 22:10:00,
2013-02-27 14:15:00,48.2,41.6,30.26,SE,135,1.6,1.6,78,0.01,,,0.04,WUHU216HW,2013-02-27 22:15:00,
2013-02-27 14:20:00,48.2,41.6,30.26,South,180,1.6,1.8,78,0.01,,,0.04,WUHU216HW,2013-02-27 22:20:00,
2013-02-27 14:25:00,48.2,41.6,30.26,SSW,203,3.4,3.4,78,0.01,,,0.04,WUHU216HW,2013-02-27 22:25:00,
2013-02-27 14:30:00,48.6,41.9,30.27,SSW,203,0.4,3.4,78,0.01,,,0.04,WUHU216HW,2013-02-27 22:30:00,
2013-02-27 14:35:00,48.8,41.9,30.27,SSE,158,0.4,3.4,77,0.01,,,0.04,WUHU216HW,2013-02-27 22:35:00,
2013-02-27 14:40:00,49.0,42.0,30.27,ENE,68,1.1,1.8,77,0.01,,,0.04,WUHU216HW,2013-02-27 22:40:00,
2013-02-27 14:45:00,48.8,41.9,30.27,SSW,203,0.0,1.8,77,0.00,,,0.04,WUHU216HW,2013-02-27 22:45:00,
2013-02-27 14:50:00,48.8,41.9,30.27,West,270,0.0,1.1,77,0.00,,,0.04,WUHU216HW,2013-02-27 22:50:00,
2013-02-27 14:55:00,48.6,41.9,30.27,West,270,0.0,0.0,78,0.00,,,0.04,WUHU216HW,2013-02-27 22:55:00,
2013-02-27 15:00:00,48.6,41.9,30.27,West,270,0.0,0.4,78,0.00,,,0.04,WUHU216HW,2013-02-27 23:00:00,
2013-02-27 15:05:00,48.6,42.3,30.27,WNW,293,0.0,0.9,79,0.01,,,0.05,WUHU216HW,2013-02-27 23:05:00,
2013-02-27 15:10:00,48.4,42.5,30.27,West,270,0.0,0.9,80,0.01,,,0.05,WUHU216HW,2013-02-27 23:10:00,
2013-02-27 15:14:00,48.2,42.3,30.27,West,270,0.2,1.8,80,0.01,,,0.05,WUHU216HW,2013-02-27 23:14:00,
2013-02-27 15:19:00,48.2,42.3,30.27,West,270,0.0,1.8,80,0.02,,,0.06,WUHU216HW,2013-02-27 23:19:00,
2013-02-27 15:24:00,48.1,42.5,30.27,West,270,0.2,0.4,81,0.02,,,0.06,WUHU216HW,2013-02-27 23:24:00,
2013-02-27 15:29:00,48.2,42.7,30.27,SSW,203,0.0,0.9,81,0.02,,,0.06,WUHU216HW,2013-02-27 23:29:00,
2013-02-27 15:34:00,48.1,42.5,30.27,SSW,203,0.0,0.9,81,0.02,,,0.06,WUHU216HW,2013-02-27 23:34:00,
2013-02-27 15:39:00,48.1,42.5,30.27,SSW,203,0.7,0.9,81,0.02,,,0.06,WUHU216HW,2013-02-27 23:39:00,
2013-02-27 15:44:00,48.1,42.8,30.27,South,180,0.7,0.9,82,0.02,,,0.06,WUHU216HW,2013-02-27 23:44:00,
2013-02-27 15:49:00,48.2,42.9,30.27,SSW,203,0.0,1.1,82,0.02,,,0.06,WUHU216HW,2013-02-27 23:49:00,
2013-02-27 15:54:00,48.2,42.9,30.27,SSW,203,0.4,1.1,82,0.02,,,0.06,WUHU216HW,2013-02-27 23:54:00,
2013-02-27 15:59:00,48.2,42.9,30.27,South,180,0.4,1.1,82,0.02,,,0.06,WUHU216HW,2013-02-27 23:59:00,
2013-02-27 16:04:00,48.1,42.8,30.27,South,180,0.0,1.1,82,0.01,,,0.06,WUHU216HW,2013-02-28 00:04:00,
2013-02-27 16:09:00,48.2,43.3,30.27,South,180,0.0,0.9,83,0.01,,,0.06,WUHU216HW,2013-02-28 00:09:00,
2013-02-27 16:15:00,48.1,43.1,30.27,South,180,0.0,0.2,83,0.01,,,0.06,WUHU216HW,2013-02-28 00:15:00,
2013-02-27 16:20:00,48.1,43.1,30.26,West,270,0.0,0.4,83,0.00,,,0.06,WUHU216HW,2013-02-28 00:20:00,
2013-02-27 16:25:00,47.9,42.9,30.26,West,270,0.0,0.4,83,0.00,,,0.06,WUHU216HW,2013-02-28 00:25:00,
2013-02-27 16:29:00,47.9,42.9,30.26,West,270,0.0,0.2,83,0.00,,,0.06,WUHU216HW,2013-02-28 00:29:00,
2013-02-27 16:34:00,47.9,42.9,30.26,West,270,0.0,0.2,83,0.00,,,0.06,WUHU216HW,2013-02-28 00:34:00,
2013-02-27 16:39:00,47.9,42.9,30.25,West,270,0.0,0.0,83,0.00,,,0.06,WUHU216HW,2013-02-28 00:39:00,
2013-02-27 16:44:00,47.9,42.9,30.25,West,270,0.0,0.0,83,0.00,,,0.06,WUHU216HW,2013-02-28 00:44:00,
2013-02-27 16:49:00,47.7,42.8,30.26,West,270,0.0,0.0,83,0.00,,,0.06,WUHU216HW,2013-02-28 00:49:00,
2013-02-27 16:54:00,47.7,43.1,30.25,West,270,0.0,0.0,84,0.00,,,0.06,WUHU216HW,2013-02-28 00:54:00,
2013-02-27 16:59:00,47.7,43.1,30.25,West,270,0.0,0.0,84,0.00,,,0.06,WUHU216HW,2013-02-28 00:59:00,
2013-02-27 17:04:00,47.5,42.9,30.25,West,270,0.0,0.0,84,0.00,,,0.06,WUHU216HW,2013-02-28 01:04:00,
2013-02-27 17:09:00,47.5,42.9,30.26,West,270,0.0,0.0,84,0.00,,,0.06,WUHU216HW,2013-02-28 01:09:00,
2013-02-27 17:14:00,47.5,43.2,30.26,West,270,0.0,0.0,85,0.00,,,0.06,WUHU216HW,2013-02-28 01:14:00,
2013-02-27 17:19:00,47.5,43.2,30.26,West,270,0.0,0.0,85,0.00,,,0.06,WUHU216HW,2013-02-28 01:19:00,
2013-02-27 17:24:00,47.5,43.2,30.26,West,270,0.0,0.0,85,0.00,,,0.06,WUHU216HW,2013-02-28 01:24:00,
2013-02-27 17:29:00,47.3,43.0,30.26,West,270,0.0,0.0,85,0.00,,,0.06,WUHU216HW,2013-02-28 01:29:00,
2013-02-27 17:34:00,47.3,43.0,30.25,West,270,0.0,0.4,85,0.00,,,0.06,WUHU216HW,2013-02-28 01:34:00,
2013-02-27 17:39:00,47.2,42.9,30.26,West,270,0.4,0.9,85,0.01,,,0.07,WUHU216HW,2013-02-28 01:39:00,
2013-02-27 17:44:00,47.2,42.9,30.25,West,270,0.0,0.9,85,0.02,,,0.08,WUHU216HW,2013-02-28 01:44:00,
2013-02-27 17:49:00,47.2,42.9,30.26,West,270,0.7,0.9,85,0.02,,,0.08,WUHU216HW,2013-02-28 01:49:00,
2013-02-27 17:54:00,47.2,43.2,30.26,West,270,0.0,0.7,86,0.02,,,0.08,WUHU216HW,2013-02-28 01:54:00,
2013-02-27 17:59:00,47.2,43.2,30.26,West,270,0.0,0.7,86,0.02,,,0.08,WUHU216HW,2013-02-28 01:59:00,
2013-02-27 18:04:00,47.0,43.0,30.26,West,270,0.4,0.7,86,0.03,,,0.09,WUHU216HW,2013-02-28 02:04:00,
2013-02-27 18:09:00,46.8,42.8,30.26,West,270,0.0,0.7,86,0.03,,,0.09,WUHU216HW,2013-02-28 02:09:00,
2013-02-27 18:14:00,46.8,43.2,30.25,East,90,0.4,1.1,87,0.03,,,0.09,WUHU216HW,2013-02-28 02:14:00,
2013-02-27 18:19:00,47.0,43.4,30.26,East,90,0.0,1.1,87,0.03,,,0.09,WUHU216HW,2013-02-28 02:19:00,
2013-02-27 18:24:00,47.0,43.4,30.26,East,90,0.0,0.4,87,0.04,,,0.10,WUHU216HW,2013-02-28 02:24:00,
2013-02-27 18:29:00,46.8,43.2,30.26,East,90,0.0,0.7,87,0.08,,,0.14,WUHU216HW,2013-02-28 02:29:00,
2013-02-27 18:34:00,46.6,43.0,30.26,East,90,0.0,0.7,87,0.11,,,0.17,WUHU216HW,2013-02-28 02:34:00,
2013-02-27 18:39:00,46.6,43.3,30.27,East,90,0.7,0.7,88,0.11,,,0.19,WUHU216HW,2013-02-28 02:39:00,
2013-02-27 18:44:00,46.4,43.1,30.26,ENE,68,1.1,1.1,88,0.12,,,0.20,WUHU216HW,2013-02-28 02:44:00,
2013-02-27 18:49:00,46.3,42.9,30.26,NE,45,0.0,1.3,88,0.12,,,0.20,WUHU216HW,2013-02-28 02:49:00,
2013-02-27 18:54:00,46.1,43.1,30.26,NE,45,0.4,1.3,89,0.12,,,0.20,WUHU216HW,2013-02-28 02:54:00,
2013-02-27 18:59:00,46.1,42.8,30.26,NNE,23,0.0,0.4,88,0.11,,,0.20,WUHU216HW,2013-02-28 02:59:00,
2013-02-27 19:04:00,46.1,42.8,30.26,NNE,23,0.0,0.4,88,0.11,,,0.20,WUHU216HW,2013-02-28 03:04:00,
2013-02-27 19:09:00,46.3,43.6,30.26,ENE,68,0.4,0.9,90,0.11,,,0.20,WUHU216HW,2013-02-28 03:09:00,
2013-02-27 19:14:00,46.3,43.3,30.27,ENE,68,0.4,1.1,89,0.11,,,0.20,WUHU216HW,2013-02-28 03:14:00,
2013-02-27 19:19:00,46.3,43.3,30.27,ENE,68,0.0,1.1,89,0.10,,,0.20,WUHU216HW,2013-02-28 03:19:00,
2013-02-27 19:24:00,46.3,43.3,30.27,ENE,68,0.2,0.4,89,0.09,,,0.21,WUHU216HW,2013-02-28 03:24:00,
2013-02-27 19:29:00,46.4,43.1,30.27,South,180,0.0,0.9,88,0.06,,,0.21,WUHU216HW,2013-02-28 03:29:00,
2013-02-27 19:34:00,46.4,43.1,30.28,South,180,0.0,0.9,88,0.05,,,0.22,WUHU216HW,2013-02-28 03:34:00,
2013-02-27 19:39:00,46.4,43.1,30.28,South,180,0.0,0.0,88,0.04,,,0.23,WUHU216HW,2013-02-28 03:39:00,
2013-02-27 19:44:00,46.4,43.5,30.28,South,180,0.0,0.0,89,0.03,,,0.23,WUHU216HW,2013-02-28 03:44:00,
2013-02-27 19:49:00,46.4,43.5,30.28,South,180,0.0,0.0,89,0.04,,,0.24,WUHU216HW,2013-02-28 03:49:00,
2013-02-27 19:54:00,46.4,43.5,30.28,South,180,0.0,0.0,89,0.04,,,0.24,WUHU216HW,2013-02-28 03:54:00,
2013-02-27 19:59:00,46.4,43.5,30.28,South,180,0.0,0.0,89,0.05,,,0.26,WUHU216HW,2013-02-28 03:59:00,
2013-02-27 20:04:00,46.4,43.5,30.28,South,180,0.0,0.0,89,0.05,,,0.26,WUHU216HW,2013-02-28 04:04:00,
2013-02-27 20:09:00,46.3,43.3,30.28,South,180,0.0,0.2,89,0.06,,,0.26,WUHU216HW,2013-02-28 04:09:00,
2013-02-27 20:14:00,46.3,43.6,30.28,ENE,68,0.4,0.4,90,0.06,,,0.26,WUHU216HW,2013-02-28 04:14:00,
2013-02-27 20:19:00,46.3,43.6,30.28,NE,45,0.0,0.4,90,0.05,,,0.26,WUHU216HW,2013-02-28 04:19:00,
2013-02-27 20:24:00,46.1,43.4,30.28,NNW,338,0.0,0.4,90,0.05,,,0.26,WUHU216HW,2013-02-28 04:24:00,
2013-02-27 20:29:00,46.1,43.4,30.29,NW,315,0.4,0.4,90,0.05,,,0.28,WUHU216HW,2013-02-28 04:29:00,
2013-02-27 20:34:00,45.9,43.2,30.28,NE,45,1.8,1.8,90,0.05,,,0.28,WUHU216HW,2013-02-28 04:34:00,
2013-02-27 20:39:00,45.7,43.0,30.28,NNE,23,0.7,1.8,90,0.05,,,0.28,WUHU216HW,2013-02-28 04:39:00,
2013-02-27 20:44:00,45.5,42.6,30.28,NNE,23,0.9,1.8,89,0.05,,,0.28,WUHU216HW,2013-02-28 04:44:00,
2013-02-27 20:49:00,45.4,42.4,30.28,NE,45,0.2,1.3,89,0.04,,,0.28,WUHU216HW,2013-02-28 04:49:00,
2013-02-27 20:54:00,45.2,42.2,30.28,NE,45,0.0,1.1,89,0.04,,,0.28,WUHU216HW,2013-02-28 04:54:00,
2013-02-27 20:59:00,45.4,42.7,30.28,NE,45,0.4,1.3,90,0.03,,,0.28,WUHU216HW,2013-02-28 04:59:00,
2013-02-27 21:00:00,45.4,42.7,30.28,NE,45,0.4,1.3,90,0.03,,,0.28,WUHU216HW,2013-02-28 05:00:00,
2013-02-27 21:05:00,45.4,42.7,30.28,North,0,0.0,1.3,90,0.03,,,0.28,WUHU216HW,2013-02-28 05:05:00,
2013-02-27 21:10:00,45.4,42.7,30.27,NNE,23,0.0,0.4,90,0.02,,,0.28,WUHU216HW,2013-02-28 05:10:00,
2013-02-27 21:15:00,45.4,42.7,30.27,NE,45,0.0,1.1,90,0.02,,,0.28,WUHU216HW,2013-02-28 05:15:00,
2013-02-27 21:20:00,45.4,42.7,30.27,SE,135,0.4,1.3,90,0.02,,,0.28,WUHU216HW,2013-02-28 05:20:00,
2013-02-27 21:25:00,45.4,42.7,30.27,East,90,0.0,1.3,90,0.01,,,0.28,WUHU216HW,2013-02-28 05:25:00,
2013-02-27 21:30:00,45.4,42.7,30.27,ENE,68,1.1,1.1,90,0.01,,,0.28,WUHU216HW,2013-02-28 05:30:00,
2013-02-27 21:35:00,45.4,42.7,30.27,East,90,0.4,1.1,90,0.00,,,0.28,WUHU216HW,2013-02-28 05:35:00,
2013-02-27 21:40:00,45.4,42.7,30.27,ENE,68,0.2,1.1,90,0.00,,,0.28,WUHU216HW,2013-02-28 05:40:00,
2013-02-27 21:45:00,45.2,42.5,30.27,NNE,23,0.4,1.1,90,0.00,,,0.28,WUHU216HW,2013-02-28 05:45:00,
2013-02-27 21:50:00,45.2,42.8,30.27,SE,135,0.4,1.1,91,0.00,,,0.28,WUHU216HW,2013-02-28 05:50:00,
2013-02-27 21:55:00,45.2,42.8,30.27,NE,45,0.7,2.0,91,0.00,,,0.28,WUHU216HW,2013-02-28 05:55:00,
2013-02-27 22:00:00,45.2,42.8,30.28,ENE,68,1.1,2.0,91,0.00,,,0.28,WUHU216HW,2013-02-28 06:00:00,
2013-02-27 22:05:00,45.2,42.8,30.28,North,0,0.7,1.6,91,0.00,,,0.28,WUHU216HW,2013-02-28 06:05:00,
2013-02-27 22:10:00,45.2,42.8,30.28,North,0,1.8,1.8,91,0.00,,,0.28,WUHU216HW,2013-02-28 06:10:00,
2013-02-27 22:15:00,45.0,42.6,30.28,NNW,338,1.1,2.5,91,0.00,,,0.28,WUHU216HW,2013-02-28 06:15:00,
2013-02-27 22:20:00,45.0,42.6,30.28,NNW,338,0.2,2.5,91,0.00,,,0.28,WUHU216HW,2013-02-28 06:20:00,
2013-02-27 22:25:00,45.0,42.6,30.28,NE,45,2.5,2.5,91,0.00,,,0.28,WUHU216HW,2013-02-28 06:25:00,
2013-02-27 22:30:00,44.8,42.4,30.28,East,90,0.0,2.5,91,0.00,,,0.28,WUHU216HW,2013-02-28 06:30:00,
2013-02-27 22:35:00,44.8,42.7,30.28,North,0,1.6,2.5,92,0.00,,,0.28,WUHU216HW,2013-02-28 06:35:00,
2013-02-27 22:40:00,44.8,42.7,30.28,ENE,68,0.2,2.5,92,0.00,,,0.28,WUHU216HW,2013-02-28 06:40:00,
2013-02-27 22:45:00,44.8,42.4,30.28,ENE,68,0.4,2.5,91,0.00,,,0.28,WUHU216HW,2013-02-28 06:45:00,
2013-02-27 22:50:00,45.0,42.6,30.27,North,0,0.4,1.8,91,0.00,,,0.28,WUHU216HW,2013-02-28 06:50:00,
2013-02-27 22:55:00,44.8,42.4,30.27,ESE,113,0.9,2.9,91,0.00,,,0.28,WUHU216HW,2013-02-28 06:55:00,
2013-02-27 23:00:00,44.8,42.4,30.27,East,90,0.4,2.9,91,0.00,,,0.28,WUHU216HW,2013-02-28 07:00:00,
2013-02-27 23:05:00,44.8,42.4,30.27,NE,45,0.2,1.1,91,0.00,,,0.28,WUHU216HW,2013-02-28 07:05:00,
2013-02-27 23:10:00,44.8,42.4,30.27,NNE,23,1.3,2.9,91,0.00,,,0.28,WUHU216HW,2013-02-28 07:10:00,
2013-02-27 23:15:00,44.8,42.4,30.26,North,0,1.3,2.9,91,0.00,,,0.28,WUHU216HW,2013-02-28 07:15:00,
2013-02-27 23:20:00,44.8,42.4,30.26,ENE,68,0.2,1.8,91,0.00,,,0.28,WUHU216HW,2013-02-28 07:20:00,
2013-02-27 23:25:00,44.8,42.4,30.27,North,0,0.0,1.8,91,0.00,,,0.28,WUHU216HW,2013-02-28 07:25:00,
2013-02-27 23:30:00,44.8,42.4,30.26,NNE,23,1.8,1.8,91,0.00,,,0.28,WUHU216HW,2013-02-28 07:30:00,
2013-02-27 23:35:00,44.8,42.4,30.26,ENE,68,0.0,1.8,91,0.00,,,0.28,WUHU216HW,2013-02-28 07:35:00,
2013-02-27 23:40:00,44.8,42.4,30.26,ENE,68,0.0,1.6,91,0.00,,,0.28,WUHU216HW,2013-02-28 07:40:00,
2013-02-27 23:45:00,44.8,42.4,30.27,East,90,1.8,1.8,91,0.00,,,0.28,WUHU216HW,2013-02-28 07:45:00,
2013-02-27 23:50:00,44.8,42.4,30.27,NE,45,0.0,1.8,91,0.00,,,0.28,WUHU216HW,2013-02-28 07:50:00,
2013-02-27 23:55:00,44.8,42.4,30.27,NE,45,0.7,1.8,91,0.00,,,0.28,WUHU216HW,2013-02-28 07:55:00,